Lalas, Greece

11:37 AM EET on December 11, 2016 (GMT +0200)
Eleftherios Venizelos International

Weather History for LGAV - February, 2013

Change the Weather History Date:

Tuesday, February 19, 2013

  Actual Average Record
Temperature  
Mean Temperature 46 °F -  
Max Temperature 55 °F - - ()
Min Temperature 37 °F - - ()
Degree Days  
Heating Degree Days 19    
Moisture  
Dew Point 41 °F    
Average Humidity 80    
Maximum Humidity 93    
Minimum Humidity 63    
Precipitation  
Precipitation 0.00 in - - ()
Sea Level Pressure  
Sea Level Pressure 29.90 in    
Wind  
Wind Speed 3 mph ()    
Max Wind Speed 13 mph    
Max Gust Speed -    
Visibility 5.4 miles    
Events Rain    
T = Trace of Precipitation, MM = Missing Value Source: Averaged Metar Reports

Daily Weather History Graph

Daily Weather History Graph

Search for Another Location

Airport or City:

Trip Planner

Search our weather history database for the weather conditions in past years. The results will help you decide how hot, cold, wet, or windy it might be!

Date:

Astronomy

Feb. 19, 2013 Rise Set
Actual Time 7:09 AM EET 6:07 PM EET
Civil Twilight 6:42 AM EET 6:34 PM EET
Nautical Twilight 6:11 AM EET 7:04 PM EET
Astronomical Twilight 5:41 AM EET 7:35 PM EET
Moon 12:27 PM EET (2/19) 2:22 AM EET (2/19)
Length of Visible Light 11h 51m
Length of Day
10h 58m
Waxing Gibbous, 64% of the Moon is Illuminated
Feb 19
Waxing Gibbous
Feb 25
Full
Mar 4
Last Quarter
Mar 11
New
Mar 19
First Quarter

Hourly Weather History & Observations

Time (EET) Temp. Windchill Dew Point Humidity Pressure Visibility Wind Dir Wind Speed Gust Speed Precip Events Conditions
12:20 AM 41.0 °F 39.0 °F 37.4 °F 87% 30.06 in 6.2 mi West 3.5 mph - N/A   Scattered Clouds
12:50 AM 41.0 °F - 37.4 °F 87% 30.06 in 6.2 mi Variable 1.2 mph - N/A   Scattered Clouds
1:20 AM 37.4 °F 34.9 °F 35.6 °F 93% 30.06 in 6.2 mi Variable 3.5 mph - N/A   Scattered Clouds
1:50 AM 39.2 °F - 35.6 °F 87% 30.04 in 6.2 mi North 1.2 mph - N/A   Mostly Cloudy
2:20 AM 39.2 °F 37.0 °F 35.6 °F 87% 30.04 in 6.2 mi NNW 3.5 mph - N/A   Mostly Cloudy
2:50 AM 39.2 °F 37.0 °F 35.6 °F 87% 30.04 in 6.2 mi WNW 3.5 mph - N/A   Mostly Cloudy
3:20 AM 39.2 °F - 35.6 °F 87% 30.04 in 6.2 mi Variable 1.2 mph - N/A   Mostly Cloudy
3:50 AM 39.2 °F - 37.4 °F 93% 30.01 in 6.2 mi Variable 2.3 mph - N/A   Mostly Cloudy
4:20 AM 41.0 °F - 37.4 °F 87% 30.01 in 6.2 mi NW 2.3 mph - N/A   Mostly Cloudy
4:50 AM 41.0 °F 39.0 °F 39.2 °F 93% 30.01 in 6.2 mi WNW 3.5 mph - N/A   Mostly Cloudy
5:20 AM 41.0 °F - 39.2 °F 93% 30.01 in 6.2 mi NW 2.3 mph - N/A   Mostly Cloudy
5:50 AM 41.0 °F - 39.2 °F 93% 29.98 in 6.2 mi Calm Calm - N/A   Mostly Cloudy
6:20 AM 42.8 °F - 41.0 °F 93% 29.98 in 6.2 mi Calm Calm - N/A   Overcast
6:50 AM 44.6 °F - 39.2 °F 81% 29.98 in 6.2 mi Variable 1.2 mph - N/A Rain Light Rain
7:20 AM 44.6 °F - 39.2 °F 81% 29.98 in 3.7 mi West 1.2 mph - N/A Rain Light Rain
7:50 AM 46.4 °F - 41.0 °F 81% 29.98 in 3.1 mi Variable 1.2 mph - N/A Rain Light Rain
8:20 AM 44.6 °F 42.2 °F 41.0 °F 87% 29.98 in 1.9 mi WNW 4.6 mph - N/A Rain Rain
8:50 AM 46.4 °F 45.2 °F 42.8 °F 87% 29.95 in 1.6 mi Variable 3.5 mph - N/A Rain Rain
9:20 AM 46.4 °F - 42.8 °F 87% 29.95 in 3.1 mi Variable 2.3 mph - N/A Rain Light Rain
9:50 AM 48.2 °F - 42.8 °F 82% 29.92 in 3.1 mi WNW 4.6 mph - N/A Rain Light Rain
10:20 AM 48.2 °F - 44.6 °F 87% 29.92 in 1.9 mi Calm Calm - N/A Rain Rain
10:50 AM 50.0 °F - 46.4 °F 87% 29.89 in 3.7 mi Variable 2.3 mph - N/A Rain Light Rain
11:20 AM 51.8 °F - 46.4 °F 82% 29.89 in 3.7 mi Variable 1.2 mph - N/A Rain Light Rain
11:50 AM 51.8 °F - 46.4 °F 82% 29.89 in 1.9 mi SSW 2.3 mph - N/A Rain Rain
12:20 PM 51.8 °F - 48.2 °F 88% 29.86 in 1.6 mi Variable 2.3 mph - N/A Rain Rain
12:50 PM 51.8 °F - 46.4 °F 82% 29.83 in 6.2 mi SSW 11.5 mph - N/A Rain Light Rain
1:20 PM 55.4 °F - 50.0 °F 82% 29.83 in 6.2 mi SSW 12.7 mph - N/A   Overcast
1:50 PM 55.4 °F - 44.6 °F 67% 29.80 in 6.2 mi WSW 9.2 mph - N/A   Mostly Cloudy
2:20 PM 55.4 °F - 44.6 °F 67% 29.80 in 6.2 mi WSW 8.1 mph - N/A   Mostly Cloudy
2:50 PM 53.6 °F - 42.8 °F 67% 29.80 in 6.2 mi Variable 2.3 mph - N/A   Mostly Cloudy
3:20 PM 53.6 °F - 42.8 °F 67% 29.80 in 6.2 mi South 4.6 mph - N/A   Mostly Cloudy
3:50 PM 55.4 °F - 42.8 °F 63% 29.80 in 6.2 mi SW 6.9 mph - N/A   Mostly Cloudy
4:20 PM 53.6 °F - 42.8 °F 67% 29.80 in 6.2 mi SSW 5.8 mph - N/A   Mostly Cloudy
4:50 PM 55.4 °F - 44.6 °F 67% 29.80 in 6.2 mi South 5.8 mph - N/A   Scattered Clouds
5:20 PM 55.4 °F - 42.8 °F 63% 29.80 in 6.2 mi South 4.6 mph - N/A   Mostly Cloudy
5:50 PM 53.6 °F - 42.8 °F 67% 29.77 in 6.2 mi South 4.6 mph - N/A   Mostly Cloudy
6:20 PM 51.8 °F - 42.8 °F 71% 29.77 in 6.2 mi SW 4.6 mph - N/A   Scattered Clouds
6:50 PM 50.0 °F - 42.8 °F 76% 29.80 in 6.2 mi West 4.6 mph - N/A   Mostly Cloudy
7:20 PM 50.0 °F - 41.0 °F 71% 29.80 in 6.2 mi WSW 4.6 mph - N/A   Scattered Clouds
7:50 PM 48.2 °F - 41.0 °F 76% 29.80 in 6.2 mi West 3.5 mph - N/A   Partly Cloudy
8:20 PM 48.2 °F - 41.0 °F 76% 29.80 in 6.2 mi Variable 2.3 mph - N/A   Partly Cloudy
8:50 PM 46.4 °F - 41.0 °F 81% 29.80 in 6.2 mi ENE 2.3 mph - N/A   Partly Cloudy
9:20 PM 46.4 °F - 41.0 °F 81% 29.80 in 6.2 mi Variable 1.2 mph - N/A   Scattered Clouds
9:50 PM 46.4 °F 45.2 °F 41.0 °F 81% 29.80 in 6.2 mi Variable 3.5 mph - N/A   Scattered Clouds
10:20 PM 48.2 °F - 41.0 °F 76% 29.83 in 6.2 mi WNW 9.2 mph - N/A   Scattered Clouds
10:50 PM 48.2 °F - 39.2 °F 71% 29.83 in 6.2 mi WNW 8.1 mph - N/A   Scattered Clouds
11:20 PM 46.4 °F 45.2 °F 39.2 °F 76% 29.83 in 6.2 mi Variable 3.5 mph - N/A   Scattered Clouds
11:50 PM 51.8 °F - 41.0 °F 67% 29.83 in 6.2 mi West 10.4 mph - N/A   Scattered Clouds